Regional Weather Roundup
Issued by NWS Nashville, TN

Home | Current Version | Previous Version | Text Only | Print | Product List | Glossary On
Versions: 1 2 3 4 5 6 7 8 9 10 11 12 13 14 15 16 17 18 19 20 21 22 23 24 25 26 27 28 29 30 31 32 33 34 35 36 37 38 39 40 41 42 43 44 45 46 47 48 49 50
000
ASUS44 KOHX 231215
RWROHX
MIDDLE TENNESSEE HOURLY WEATHER ROUNDUP
NATIONAL WEATHER SERVICE NASHVILLE TN
700 AM CDT TUE SEP 23 2014

NOTE: "FAIR" INDICATES FEW OR NO CLOUDS BELOW 12,000 FEET WITH
NO SIGNIFICANT WEATHER AND/OR OBSTRUCTIONS TO VISIBILITY.

* THESE REPORTS ARE NOT UNDER NWS QUALITY CONTROL AND MAY NOT
  REPORT WEATHER SUCH AS PRECIPITATION AND FOG.


TNZ005>011-023>034-057-059-062>066-078-080-231300
...NORTHERN MIDDLE TENNESSEE...

CITY           SKY/WX    TMP DP  RH WIND       PRES   REMARKS
CLARKSVILLE    CLEAR     45  42  89 NW3       30.28R
CROSSVILLE     CLEAR     48  44  86 NE5       30.27R
GALLATIN         N/A     46  45  97 CALM      30.27R
DICKSON        CLEAR     46  45  93 CALM      30.25R
LEBANON        CLEAR     42  42 100 CALM      30.24R
LIVINGSTON     CLEAR     47  46  96 NE6       30.26R
NASHVILLE      CLEAR     51  45  79 CALM      30.26R
WEST NASHVILLE   N/A     46  46 100 CALM      30.26R
PORTLAND       CLEAR     43  41  93 CALM      30.26R
SMYRNA         CLEAR     46  44  93 CALM      30.27R
SPARTA         CLEAR     41  39  93 CALM      30.25S
$$
TNZ056-058-060-061-075>077-079-093>097-231300
...SOUTHERN MIDDLE TENNESSEE...

CITY           SKY/WX    TMP DP  RH WIND       PRES   REMARKS
COLUMBIA       CLEAR     45  45 100 CALM      30.23S
FAYETTEVILLE   CLEAR     48  45  87 NE10      30.22R
LEWISBURG      CLEAR     41  40  96 CALM      30.24R
MCMINNVILLE    CLEAR     46  46 100 CALM      30.25R
MURFREESBORO   CLEAR     46  43  90 CALM      30.25
SHELBYVILLE    CLEAR     45  45 100 CALM      30.25R
TULLAHOMA      CLEAR     50  46  87 NE3       30.25R
WINCHESTER     CLEAR     46  46 100 CALM      30.24R
$$


...KEY TO REMARKS...
VSB - VISIBILITY IN MILES
WCI - WIND CHILL INDEX
HX  - HEAT INDEX



USA.gov is the U.S. government's official web portal to all federal, state and local government web resources and services.